Regional Weather Roundup
Issued by NWS Bismarck, ND

Home | Current Version | Previous Version | Text Only | Print | Product List | Glossary On
Versions: 1 2 3 4 5 6 7 8 9 10 11 12 13 14 15 16 17 18 19 20 21 22 23 24 25 26 27 28 29 30 31 32 33 34 35 36 37 38 39 40 41 42 43 44 45 46 47 48 49 50
000
ASUS43 KBIS 011910
RWRBIS

NWR BROADCAST TEXT
NATIONAL WEATHER SERVICE BISMARCK ND
200 PM CDT WED APR 01 2015

NOTE: "FAIR" INDICATES FEW OR NO CLOUDS BELOW 12,000 FEET WITH NO
SIGNIFICANT WEATHER AND/OR OBSTRUCTIONS TO VISIBILITY.


CITY           SKY/WX    TMP DP  RH WIND       PRES   REMARKS
WILLISTON      MOSUNNY   53  29  39 W29G36    29.63S
MINOT          PTSUNNY   58  36  43 W28G37    29.50R
MINOT AFB      PTSUNNY   55  42  61 NW29G36   29.50R
BISMARCK       CLOUDY    59  31  34 NW23G35   29.57R
DICKINSON      MOSUNNY   54  26  34 W32G45    29.62R
GARRISON         N/A     58  32  37 W24G37    29.54R
HETTINGER ARPT MOSUNNY   58  20  22 W37G46    29.66S
JAMESTOWN      PTSUNNY   62  39  42 W31G46    29.43R
BEACH          FAIR      52  27  37 NW32G40   29.71R
CARRINGTON     FAIR      59  45  58 NW32G39   29.47R
CROSBY         FAIR      48  32  53 NW22G35   29.59R
HARVEY         FAIR      57  37  47 W26G37    29.47R
HAZEN          FAIR      59  27  29 NW25G32   29.57R
LINTON         FAIR      61  34  36 NW32G43   29.54S
MANDAN         FAIR      57  28  33 NW29G35   29.57R
OAKES            N/A     64  41  42 W29G39    29.43R
WATFORD CITY   FAIR      54  32  43 NW24G33   29.61R
$$

CITY           SKY/WX    TMP DP  RH WIND       PRES   REMARKS
GRAND FORKS    PTSUNNY   65  37  35 W13       29.32F
GRAND FORKS AF PTSUNNY   65  37  35 W14       29.33S
DEVILS LAKE    CLOUDY    54  39  58 W26       29.41R
FARGO          CLOUDY    72  35  25 SW20G30   29.35R
CAVALIER       FAIR      59  41  51 W14       29.33S
GWINNER        CLEAR     66  37  34 W24         N/A
ROLLA          MOCLDY    54  43  66 W20G28    29.42R
$$

CITY           SKY/WX    TMP DP  RH WIND       PRES   REMARKS
ABERDEEN       LGT RAIN  70  39  32 NW25G33   29.46R
MOBRIDGE       PTSUNNY   65  35  33 NW30G38   29.54R
BUFFALO          N/A     55  18  23 W39G48    29.66R
RAPID CITY     MOSUNNY   58  31  35 N33G45    29.71R
GLASGOW        PTSUNNY   53  24  32 W28G37    29.71S
SIDNEY         SUNNY     55  28  35 W26G33    29.66S
WOLF POINT     MOSUNNY   56  27  32 W26G35    29.70R
GLENDIVE         N/A     52  25  35 W31G37    29.73R
MILES CITY     MOSUNNY   62  15  16 W25G32    29.77F
BAKER          PTSUNNY   52  21  29 W29G44    29.73R
$$

CITY           SKY/WX    TMP DP  RH WIND       PRES   REMARKS
BILLINGS       MOSUNNY   53   9  17 W29G37    29.85F
GREAT FALLS    PTSUNNY   48   8  19 W24G38    29.82F
REGINA         PTSUNNY   48  32  53 W32G40    29.54S
ESTEVAN        CLOUDY    48  34  57 W28G39    29.56R
$$



USA.gov is the U.S. government's official web portal to all federal, state and local government web resources and services.